FENGYUN 1C DEB, 30527

Orbit data source: Space-Track

FENGYUN 1C DEB, 30527 is space debris in SSO originally from a launch on Mon, 10 May 1999 UTC launched from the Taiyaun Space Center, China (TSC). Fengyun 1C debris stems from the Chinese weather satellite Fengyun-1C, which was intentionally destroyed by a Chinese anti-satellite missile in 2007. This event dramatically increased the amount of space debris, with thousands of trackable fragments posing hazards to satellites and human spaceflight. The Fengyun 1C debris cloud has become a focal point in discussions about space sustainability and the need for international regulations to prevent the creation of new debris.

Loading next visibility...
Identifier
30527, 1999-025AJR
Orbit
SSO
Country
Flag of CNCN / PRC
Related business
Manufacturer
Unknown
Mission
Spacecraft
Bus & Motor
Unknown
Mass
Unknown
Launch date (UTC)
1999-05-10 (27 years ago)
Launch vehicle
Unknown
Launch site
Taiyaun Space Center, China (TSC)
Object type
Payload
Rocket body
Debris
Shape & HBR
Unknown shape, 0.1 m
Radar Cross Section
Small (<0.1 m²)

Expand to show TLE details & history
Last TLE update: 7 hours ago

TLE from 7 hours ago
0 FENGYUN 1C DEB
1 30527U 99025AJR 26071.61638689  .00000923  00000-0  12764-2 0  9991
2 30527 100.0523 118.1735 0408868  12.9934 136.5185 13.31244806925522
Epoch: 2026-03-12T14:47Z
TLE epoch observation values (Epoch: 2026-03-12T14:47:35.827Z)
Latitude
26.9619°
Longitude
-88.84141°
Altitude
1,374.063 km
Speed
7.064 km/s
True Right ascension
20h 13m 17s
True Declination
26° 50' 03"
Sunlit
Object was in daylight at epoch
Visualization orbit readout
Latitude
Unknown
Longitude
Unknown
Altitude
Unknown
Speed
Unknown
Apparent Right ascension
Unknown
Apparent Declination
Unknown
Sunlit
N/A
Visualization observer readout
Local Sidereal Time
02:25:27
Azimuth
Unknown
Elevation
Unknown
Doppler factor
Unknown
Orbital elements
Apogee altitude
1,446.778 km
Perigee altitude
832.041 km
Semi-major axis
7,517.547 km
Eccentricity
0.04089
Inclination
100.0523°
RAAN
118.1735°
Arg. of periapsis
12.9934°
True anomaly
139.62558°
Mean anomaly
136.5185°
Eccentric anomaly
138.08349°
Mean motion
3.32988 °/min
Orbital period
108.11 mins
BSTAR
0.0012764
Loading maneuver chart data...
Computing Atmospheric mass density...

Documentation

Showing up to 5 results
|